TimeCDT,TemperatureF,Dew PointF,Humidity,Sea Level PressureIn,VisibilityMPH,Wind Direction,Wind SpeedMPH,Gust SpeedMPH,PrecipitationIn,Events,Conditions,WindDirDegrees,DateUTC
12:15 AM,14.0,10.4,86,30.30,10.0,NW,8.1,-,N/A,,Clear,320,2013-03-26 05:15:00
12:35 AM,12.2,8.6,85,30.30,10.0,NW,9.2,-,N/A,,Clear,310,2013-03-26 05:35:00
12:55 AM,12.2,8.6,85,30.31,10.0,NW,8.1,-,N/A,,Clear,320,2013-03-26 05:55:00
1:15 AM,12.2,8.6,85,30.30,10.0,NW,10.4,-,N/A,,Clear,310,2013-03-26 06:15:00
1:55 AM,10.4,8.6,92,30.31,10.0,NW,8.1,-,N/A,,Clear,310,2013-03-26 06:55:00
2:15 AM,10.4,8.6,92,30.30,10.0,NW,9.2,-,N/A,,Clear,320,2013-03-26 07:15:00
2:55 AM,10.4,8.6,92,30.29,10.0,NNW,8.1,-,N/A,,Clear,330,2013-03-26 07:55:00
3:15 AM,12.2,10.4,92,30.29,10.0,NNW,11.5,-,N/A,,Clear,340,2013-03-26 08:15:00
3:35 AM,10.4,8.6,92,30.29,10.0,NNW,6.9,-,N/A,,Clear,340,2013-03-26 08:35:00
3:55 AM,10.4,8.6,92,30.29,10.0,NNW,6.9,-,N/A,,Clear,330,2013-03-26 08:55:00
4:15 AM,10.4,8.6,92,30.29,10.0,NW,8.1,-,N/A,,Clear,320,2013-03-26 09:15:00
4:35 AM,8.6,5.0,85,30.28,10.0,NW,6.9,-,N/A,,Clear,320,2013-03-26 09:35:00
4:55 AM,6.8,5.0,92,30.29,10.0,NW,10.4,-,N/A,,Clear,320,2013-03-26 09:55:00
5:15 AM,6.8,5.0,92,30.28,10.0,NNW,8.1,-,N/A,,Clear,330,2013-03-26 10:15:00
5:35 AM,8.6,5.0,85,30.28,10.0,NNW,8.1,-,N/A,,Clear,340,2013-03-26 10:35:00
5:55 AM,8.6,6.8,92,30.28,10.0,NNW,6.9,-,N/A,,Clear,330,2013-03-26 10:55:00
6:15 AM,6.8,5.0,92,30.29,10.0,NNW,5.8,-,N/A,,Clear,330,2013-03-26 11:15:00
6:35 AM,5.0,1.4,85,30.29,10.0,NW,5.8,-,N/A,,Clear,310,2013-03-26 11:35:00
6:55 AM,1.4,-0.4,92,30.30,10.0,NW,3.5,-,N/A,,Clear,310,2013-03-26 11:55:00
7:15 AM,1.4,-0.4,92,30.30,10.0,NW,4.6,-,N/A,,Clear,310,2013-03-26 12:15:00
7:35 AM,3.2,-0.4,85,30.31,10.0,NNW,3.5,-,N/A,,Clear,330,2013-03-26 12:35:00
7:55 AM,3.2,1.4,92,30.31,10.0,NNW,3.5,-,N/A,,Clear,330,2013-03-26 12:55:00
8:15 AM,5.0,1.4,85,30.31,10.0,Calm,Calm,-,N/A,,Clear,0,2013-03-26 13:15:00
8:35 AM,5.0,1.4,85,30.31,10.0,WNW,3.5,-,N/A,,Clear,300,2013-03-26 13:35:00
8:55 AM,3.2,1.4,92,30.31,10.0,NW,3.5,-,N/A,,Clear,310,2013-03-26 13:55:00
9:15 AM,6.8,3.2,85,30.31,5.0,Calm,Calm,-,N/A,Snow,Light Snow,0,2013-03-26 14:15:00
9:35 AM,8.6,5.0,85,30.31,10.0,North,3.5,-,N/A,,Clear,360,2013-03-26 14:35:00
9:55 AM,10.4,6.8,85,30.31,10.0,NNW,3.5,-,N/A,,Clear,330,2013-03-26 14:55:00
10:15 AM,8.6,6.8,92,30.31,10.0,WNW,3.5,-,N/A,,Clear,300,2013-03-26 15:15:00
10:35 AM,10.4,6.8,85,30.32,10.0,West,4.6,-,N/A,,Clear,280,2013-03-26 15:35:00
10:55 AM,10.4,8.6,92,30.32,10.0,West,4.6,-,N/A,,Clear,280,2013-03-26 15:55:00
11:15 AM,10.4,8.6,92,30.32,10.0,WNW,4.6,-,N/A,,Clear,290,2013-03-26 16:15:00
11:35 AM,12.2,8.6,85,30.32,10.0,WNW,5.8,-,N/A,,Clear,290,2013-03-26 16:35:00
11:55 AM,12.2,8.6,85,30.32,10.0,WNW,5.8,-,N/A,,Clear,300,2013-03-26 16:55:00
12:15 PM,14.0,10.4,86,30.31,10.0,WNW,4.6,-,N/A,,Clear,300,2013-03-26 17:15:00
12:35 PM,14.0,12.2,93,30.32,10.0,NW,6.9,-,N/A,,Clear,310,2013-03-26 17:35:00
12:55 PM,15.8,12.2,86,30.31,10.0,NW,5.8,-,N/A,,Clear,310,2013-03-26 17:55:00
1:15 PM,17.6,14.0,86,30.31,10.0,NW,5.8,-,N/A,,Clear,310,2013-03-26 18:15:00
1:35 PM,19.4,14.0,80,30.30,10.0,NW,6.9,-,N/A,,Clear,320,2013-03-26 18:35:00
1:55 PM,19.4,14.0,80,30.30,10.0,NW,6.9,-,N/A,,Clear,320,2013-03-26 18:55:00
2:15 PM,21.2,15.8,80,30.30,10.0,NW,6.9,-,N/A,,Clear,310,2013-03-26 19:15:00
2:35 PM,21.2,17.6,86,30.30,10.0,NW,8.1,-,N/A,,Clear,320,2013-03-26 19:35:00
2:55 PM,23.0,17.6,80,30.30,10.0,NW,8.1,-,N/A,,Clear,320,2013-03-26 19:55:00
3:15 PM,23.0,17.6,80,30.29,10.0,NNW,5.8,-,N/A,,Clear,340,2013-03-26 20:15:00
3:35 PM,23.0,17.6,80,30.28,10.0,NW,8.1,-,N/A,,Clear,320,2013-03-26 20:35:00
3:55 PM,23.0,17.6,80,30.28,10.0,NW,8.1,-,N/A,,Clear,310,2013-03-26 20:55:00
4:15 PM,23.0,17.6,80,30.27,10.0,NW,6.9,-,N/A,,Clear,320,2013-03-26 21:15:00
4:35 PM,23.0,17.6,80,30.27,10.0,NW,6.9,-,N/A,,Clear,320,2013-03-26 21:35:00
4:55 PM,23.0,17.6,80,30.27,10.0,NW,5.8,-,N/A,,Clear,320,2013-03-26 21:55:00
5:15 PM,23.0,17.6,80,30.27,10.0,NW,5.8,-,N/A,,Clear,310,2013-03-26 22:15:00
5:55 PM,23.0,17.6,80,30.26,10.0,WNW,4.6,-,N/A,,Clear,300,2013-03-26 22:55:00
6:15 PM,23.0,17.6,80,30.26,10.0,Calm,Calm,-,N/A,,Clear,0,2013-03-26 23:15:00
6:35 PM,23.0,17.6,80,30.26,10.0,North,3.5,-,N/A,,Clear,10,2013-03-26 23:35:00
6:55 PM,23.0,17.6,80,30.26,10.0,North,3.5,-,N/A,,Clear,10,2013-03-26 23:55:00
7:15 PM,21.2,17.6,86,30.26,10.0,North,3.5,-,N/A,,Clear,360,2013-03-27 00:15:00
7:35 PM,21.2,17.6,86,30.26,10.0,Calm,Calm,-,N/A,,Clear,0,2013-03-27 00:35:00
7:55 PM,21.2,17.6,86,30.26,10.0,Calm,Calm,-,N/A,,Clear,0,2013-03-27 00:55:00
8:15 PM,19.4,17.6,93,30.26,10.0,Calm,Calm,-,N/A,,Clear,0,2013-03-27 01:15:00
8:35 PM,19.4,15.8,86,30.26,10.0,Calm,Calm,-,N/A,,Clear,0,2013-03-27 01:35:00
8:55 PM,17.6,14.0,86,30.26,10.0,Calm,Calm,-,N/A,,Clear,0,2013-03-27 01:55:00
9:15 PM,15.8,12.2,86,30.26,10.0,Calm,Calm,-,N/A,,Clear,0,2013-03-27 02:15:00
9:35 PM,14.0,14.0,100,30.27,10.0,Calm,Calm,-,N/A,,Clear,0,2013-03-27 02:35:00
9:55 PM,15.8,14.0,93,30.27,10.0,Calm,Calm,-,N/A,,Clear,0,2013-03-27 02:55:00
10:15 PM,14.0,14.0,100,30.28,7.0,Calm,Calm,-,N/A,,Clear,0,2013-03-27 03:15:00
10:35 PM,14.0,12.2,93,30.28,10.0,Calm,Calm,-,N/A,,Clear,0,2013-03-27 03:35:00
10:55 PM,14.0,12.2,93,30.28,7.0,Calm,Calm,-,N/A,,Clear,0,2013-03-27 03:55:00
11:15 PM,12.2,10.4,92,30.28,0.2,Calm,Calm,-,N/A,Fog,Light Freezing Fog,0,2013-03-27 04:15:00
11:35 PM,12.2,8.6,85,30.28,3.0,Calm,Calm,-,N/A,,Scattered Clouds,0,2013-03-27 04:35:00
11:55 PM,12.2,10.4,92,30.28,7.0,Calm,Calm,-,N/A,,Clear,0,2013-03-27 04:55:00